This is the latest recevied weather packets stored in our database for station/object WW5JC. If no packets are shown the sender has not sent any weather packets the latest 10 day(s).
| Time | Temp. | Humidity | Pressure | Rain* | Wind** | Luminosity | Snow |
|---|---|---|---|---|---|---|---|
| 1778005220 | 26.67° C | 77% | 1007.1 hPa | 0 mm | - | 474 W/m² | - |
| 1778004911 | 26.11° C | 78% | 1006.6 hPa | 0 mm | - | 726 W/m² | - |
| 1778004608 | 26.11° C | 78% | 1006.7 hPa | 0 mm | - | 686 W/m² | - |
| 1778004304 | 25.56° C | 80% | 1006.8 hPa | 0 mm | - | 801 W/m² | - |
| 1778004001 | 25.56° C | 79% | 1006.9 hPa | 0 mm | - | 429 W/m² | - |
| 1778003697 | 25.56° C | 81% | 1007.2 hPa | 0 mm | - | 277 W/m² | - |
| 1778003394 | 25.56° C | 80% | 1007 hPa | 0 mm | - | 552 W/m² | - |
| 1778003091 | 25.56° C | 80% | 1006.9 hPa | 0 mm | - | 594 W/m² | - |
| 1778002787 | 25° C | 81% | 1006.5 hPa | 0 mm | - | 380 W/m² | - |
| 1778002483 | 25° C | 81% | 1006.3 hPa | 0 mm | - | 455 W/m² | - |
| 1778002181 | 25° C | 83% | 1006.2 hPa | 0 mm | - | 437 W/m² | - |
| 1778001879 | 24.44° C | 84% | 1006.3 hPa | 0 mm | - | 327 W/m² | - |
| 1778001578 | 24.44° C | 83% | 1007.1 hPa | 0 mm | - | 285 W/m² | - |
| 1778001275 | 24.44° C | 83% | 1007.5 hPa | 0 mm | - | 263 W/m² | - |
| 1778000972 | 24.44° C | 83% | 1007.6 hPa | 0 mm | - | 220 W/m² | - |
| 1778000668 | 24.44° C | 83% | 1007.3 hPa | 0 mm | - | 265 W/m² | - |
| 1778000364 | 24.44° C | 82% | 1007.3 hPa | 0 mm | - | 287 W/m² | - |
| 1778000060 | 24.44° C | 82% | 1007.1 hPa | 0 mm | - | 286 W/m² | - |
| 1777999755 | 24.44° C | 82% | 1007.1 hPa | 0 mm | - | 312 W/m² | - |
| 1777999453 | 23.89° C | 84% | 1006.9 hPa | 0 mm | - | 292 W/m² | - |
| 1777999151 | 23.89° C | 85% | 1007.1 hPa | 0 mm | - | 225 W/m² | - |
| 1777998849 | 23.89° C | 85% | 1006.8 hPa | 0 mm | - | 184 W/m² | - |
| 1777998548 | 23.89° C | 84% | 1007.1 hPa | 0 mm | - | 191 W/m² | - |
| 1777998243 | 23.89° C | 85% | 1006.9 hPa | 0 mm | - | 238 W/m² | - |
| 1777997940 | 23.89° C | 85% | 1006.7 hPa | 0 mm | - | 232 W/m² | - |
* Rain latest hour (hover to see other rain measurements)
** Current wind speed in m/s (hover to see current wind gust speed)